Wind_Speed
24 24 23 23 23 24 24 25 25 26 26 27 28 29 30 31 32 34 35 36 38 39 41 42 41 41 38 36 35 34 33 31 29 28 26 28 27 25 24 23 22 22 20
22 22 22 22 23 23 23 23 24 24 24 24 24 25 27 28 29 30 32 34 36 38 39 42 42 41 40 39 38 36 35 32 31 30 28 27 28 27 26 25 24 24 23
20 20 21 22 22 22 22 22 22 22 21 21 21 22 23 24 25 27 29 31 33 35 37 38 41 42 42 41 40 39 37 36 34 33 31 29 28 29 29 28 27 26 25
19 19 21 22 22 22 22 21 20 20 20 19 19 20 20 20 21 23 25 26 28 31 34 36 37 40 41 42 42 41 39 38 37 35 33 31 30 30 29 29 28 28 28
19 20 21 21 22 22 21 21 20 20 19 19 18 18 18 18 19 19 21 23 25 27 30 33 35 37 39 41 42 41 40 39 39 37 35 34 33 31 31 30 29 29 30
19 20 21 21 22 22 22 21 20 20 19 18 18 17 16 16 16 16 17 19 21 23 25 28 31 33 36 38 40 40 41 40 40 39 38 37 36 34 33 32 31 31 31
19 21 22 22 23 22 22 21 21 20 20 19 18 17 17 15 14 14 14 15 17 19 21 24 26 29 32 35 38 39 40 41 42 41 40 39 38 37 35 34 33 32 32
20 22 22 23 23 23 23 22 21 20 20 20 19 18 17 16 14 12 12 13 14 16 18 21 23 26 29 32 35 37 38 40 42 43 42 40 39 38 37 36 36 35 34
21 22 22 23 23 24 24 23 22 21 20 21 21 20 19 17 14 12 11 10 11 13 15 18 20 23 26 28 32 34 36 37 39 42 42 41 40 39 39 38 37 37 35
20 21 22 23 23 24 24 23 23 22 21 21 21 20 19 18 16 14 11 9 9 10 11 14 17 20 23 26 28 30 32 34 36 38 39 40 39 39 39 40 38 37 36
20 21 21 22 23 24 24 24 23 23 22 22 22 21 20 19 17 15 12 10 9 8 8 10 13 16 19 22 25 27 29 31 33 34 36 37 38 38 37 37 36 36 36
20 21 21 22 23 24 24 24 23 23 23 23 23 22 21 20 18 16 14 11 10 8 8 8 10 12 15 18 21 23 25 28 30 32 33 34 36 37 36 35 34 35 35
20 21 22 22 23 24 24 24 24 24 24 24 24 24 23 22 20 18 15 13 11 9 8 8 8 9 10 14 17 20 22 24 26 28 30 32 33 34 34 35 35 35 35
20 21 21 22 23 23 24 24 25 24 24 25 24 24 24 23 21 19 17 15 13 10 9 8 7 6 7 9 13 16 19 21 23 25 28 29 30 31 32 32 33 33 33
20 20 21 22 23 23 24 24 25 25 25 25 25 25 25 24 22 21 19 17 14 12 10 9 7 5 4 6 9 12 14 17 19 22 24 25 27 27 28 29 30 30 29
19 20 20 21 22 23 23 24 25 25 25 25 26 26 26 25 23 22 20 18 16 14 12 11 9 6 4 4 5 8 10 12 15 18 20 22 23 24 24 24 26 26 27
18 19 19 20 21 22 23 24 24 25 25 25 25 26 26 26 24 23 21 20 18 17 14 12 11 9 6 3 2 4 7 10 11 14 16 18 20 21 22 22 23 24 24
17 18 18 19 20 21 22 23 24 24 25 24 25 25 25 25 25 24 22 21 19 18 17 15 13 11 9 6 2 1 4 6 8 10 12 14 15 17 19 19 19 20 21
16 17 17 18 19 20 21 22 23 24 24 24 24 24 25 25 24 24 23 22 21 19 18 17 15 13 11 8 6 3 1 2 5 8 10 12 13 13 14 15 15 16 17
16 16 17 17 18 19 20 21 22 22 23 23 24 24 24 24 24 23 23 22 21 20 19 18 17 15 13 11 8 5 3 1 3 5 7 9 11 12 13 13 13 13 13
16 16 17 17 18 18 18 19 20 21 22 22 23 23 23 23 23 23 22 22 21 20 20 19 18 17 15 13 11 8 6 4 3 4 6 7 8 9 10 11 11 11 12
16 16 16 17 17 18 18 18 19 20 20 21 21 22 22 22 22 22 22 22 21 20 19 19 19 18 16 15 13 10 8 6 5 4 4 5 6 7 8 9 10 10 10
16 16 17 17 17 18 18 18 19 19 19 20 20 20 20 21 21 21 21 21 21 20 19 18 18 17 16 15 14 12 10 8 7 5 5 4 6 7 7 8 8 8 8
18 18 18 18 18 18 18 18 18 19 19 19 19 19 19 19 19 19 20 20 20 19 18 17 17 17 16 15 14 13 12 10 9 8 7 6 6 6 6 7 7 7 8
20 20 19 19 19 19 19 19 19 19 19 18 18 18 18 18 17 17 17 18 18 18 17 16 16 16 15 15 14 13 12 11 10 9 8 7 6 6 6 6 6 7 7
22 22 22 21 21 21 20 20 20 19 19 19 18 18 17 17 17 16 15 15 15 15 15 14 14 14 13 13 13 12 11 10 9 8 8 7 7 6 6 6 6 6 6
Wind_Direction
319 318 317 316 313 310 307 304 302 300 296 291 285 279 274 270 265 260 256 253 251 249 246 243 242 242 241 240 240 240 241 242 241 238 237 235 234 237 238 238 237 236 237
323 325 325 325 323 320 316 313 310 307 303 297 291 285 279 273 268 263 258 255 252 249 246 242 239 239 239 238 237 238 237 236 237 236 236 235 235 235 237 236 236 237 236
332 333 334 335 334 331 328 324 320 316 311 306 300 293 286 278 272 265 260 256 252 249 246 243 240 238 237 236 235 236 235 234 232 233 234 235 234 234 234 237 236 237 236
344 343 343 341 340 339 338 335 332 327 322 315 309 304 296 287 279 270 264 259 254 250 246 244 241 238 236 235 234 234 234 232 230 231 233 234 234 233 233 234 235 236 237
352 351 350 349 348 348 347 346 343 338 333 325 318 312 304 294 286 276 269 262 255 250 247 244 242 239 236 234 233 233 232 231 230 230 231 233 234 233 233 234 235 235 235
359 358 357 356 356 354 353 351 350 347 343 338 333 327 319 307 297 286 276 268 259 252 247 244 242 239 236 234 233 232 231 231 230 230 230 233 233 233 234 234 235 234 235
5 4 2 1 0 358 357 355 354 353 351 348 345 340 333 324 312 298 286 276 265 256 249 244 242 239 236 235 233 233 233 232 230 229 229 231 233 234 235 236 235 233 234
9 8 8 7 5 5 3 1 0 359 358 357 354 349 344 337 327 313 299 285 274 260 252 245 242 239 237 236 234 234 234 233 232 231 231 232 232 233 233 236 235 235 236
9 9 9 9 9 8 7 6 5 4 3 3 2 360 356 351 342 330 316 300 285 268 254 247 243 241 239 237 235 235 235 234 232 233 233 232 233 233 234 234 235 236 237
8 9 11 12 11 11 10 10 9 8 6 5 4 3 2 0 355 348 338 324 308 288 269 256 250 244 240 238 236 235 235 235 234 233 233 233 233 234 234 234 235 236 236
9 11 12 12 12 12 12 12 11 11 10 9 9 7 6 5 3 360 353 341 328 311 293 274 260 250 243 240 237 236 235 235 235 235 235 235 234 234 235 235 236 236 236
12 12 12 12 13 13 13 14 14 12 11 10 9 9 8 8 6 3 1 355 344 327 310 293 275 263 251 242 237 235 235 234 234 235 235 235 236 236 236 236 237 236 235
14 14 13 14 14 15 15 15 16 15 14 14 13 13 12 12 9 8 6 2 355 346 333 317 298 278 258 244 238 237 235 234 234 233 234 235 235 236 237 238 238 237 236
15 15 15 16 17 17 17 17 17 17 17 17 16 15 15 15 14 13 10 9 6 1 351 337 323 296 270 253 241 238 237 235 233 232 233 233 233 233 236 238 239 240 240
15 15 15 16 17 18 18 17 17 18 17 17 18 17 18 18 19 18 16 16 15 10 4 359 353 334 291 259 243 239 236 233 231 231 232 233 232 234 236 238 239 240 240
12 13 14 15 16 16 17 18 18 19 19 19 19 20 21 21 22 22 22 21 19 18 16 13 9 4 341 282 250 241 234 230 231 229 231 231 231 234 235 235 235 236 238
8 9 10 12 14 15 16 17 18 19 19 19 20 21 22 23 23 24 24 24 23 23 22 21 19 17 13 354 267 237 228 227 229 228 227 225 225 229 228 230 230 231 232
5 7 9 11 12 14 15 15 16 17 18 19 20 21 22 23 24 24 25 25 25 24 24 24 24 21 21 23 18 234 222 225 224 219 217 219 221 220 221 224 225 226 225
2 4 5 7 9 10 12 13 14 15 17 18 19 20 21 23 24 25 25 25 25 25 25 25 24 24 25 28 30 28 14 221 212 205 205 210 214 213 216 219 219 220 221
356 358 360 2 4 5 7 9 11 13 15 16 18 19 20 22 23 24 24 24 24 25 26 26 26 28 31 34 37 41 48 96 171 187 193 200 206 211 211 217 217 215 214
348 350 352 355 357 359 1 4 6 9 11 13 15 17 19 20 22 23 23 24 25 25 27 28 30 32 37 42 44 48 56 75 112 147 170 185 195 200 201 203 202 203 206
341 343 344 347 350 352 355 358 0 3 5 8 10 12 15 17 19 21 22 23 24 26 28 30 33 35 38 43 46 50 57 67 81 106 136 162 176 184 187 189 193 197 199
330 333 336 338 340 343 346 350 353 355 358 1 4 6 9 12 15 18 20 22 24 25 28 30 32 35 37 41 44 48 54 63 74 88 107 128 146 158 170 180 184 188 192
319 322 325 328 331 333 336 339 342 346 350 353 356 359 2 5 9 13 16 19 22 24 27 29 32 34 37 41 44 49 54 62 74 86 96 109 129 146 158 165 170 176 183
310 313 315 318 321 324 326 328 332 335 338 342 346 349 352 355 359 3 9 13 17 21 23 26 30 34 38 42 45 50 56 64 75 83 91 105 119 133 146 158 168 174 182
303 305 307 309 311 314 317 320 323 326 328 331 334 337 340 344 347 350 355 1 6 12 17 19 22 27 33 38 42 46 52 61 71 78 84 91 101 113 126 138 154 168 176
Height
5839 5835 5831 5827 5823 5819 5816 5812 5809 5806 5803 5801 5799 5797 5796 5796 5797 5798 5799 5801 5803 5806 5809 5813 5816 5820 5824 5827 5831 5834 5838 5842 5844 5847 5850 5853 5857 5860 5862 5865 5867 5870 5872
5836 5832 5827 5823 5819 5815 5811 5807 5803 5800 5796 5794 5791 5789 5788 5787 5787 5788 5789 5790 5793 5795 5798 5802 5805 5809 5814 5818 5822 5826 5830 5834 5837 5840 5843 5847 5851 5854 5856 5859 5862 5864 5867
5833 5829 5824 5820 5815 5811 5806 5802 5798 5794 5791 5788 5785 5782 5780 5779 5779 5779 5780 5781 5783 5785 5788 5791 5795 5799 5804 5809 5813 5817 5821 5825 5829 5833 5837 5840 5844 5847 5850 5853 5855 5858 5862
5831 5827 5822 5818 5813 5808 5803 5799 5794 5790 5787 5783 5780 5777 5775 5773 5772 5771 5772 5773 5774 5776 5778 5782 5785 5789 5794 5799 5803 5808 5812 5816 5821 5825 5829 5833 5837 5840 5843 5846 5849 5852 5855
5830 5825 5821 5816 5811 5806 5801 5796 5792 5788 5784 5780 5776 5773 5770 5767 5766 5765 5765 5765 5766 5768 5770 5773 5776 5780 5784 5789 5794 5798 5803 5807 5812 5816 5821 5825 5829 5832 5836 5839 5842 5845 5849
5829 5825 5820 5815 5810 5805 5800 5795 5791 5786 5782 5777 5773 5769 5766 5763 5761 5759 5759 5759 5760 5761 5763 5765 5768 5771 5775 5780 5784 5789 5794 5798 5803 5808 5812 5816 5821 5825 5828 5832 5835 5838 5842
5829 5825 5820 5815 5810 5804 5799 5795 5790 5785 5781 5776 5772 5767 5764 5760 5757 5755 5755 5754 5754 5755 5756 5758 5761 5764 5767 5771 5776 5780 5785 5790 5794 5799 5804 5808 5813 5817 5820 5824 5828 5831 5835
5830 5825 5820 5815 5810 5805 5800 5795 5790 5785 5780 5776 5771 5766 5762 5758 5755 5753 5751 5750 5750 5750 5751 5753 5755 5757 5760 5764 5768 5772 5776 5781 5785 5790 5795 5799 5803 5808 5812 5816 5820 5824 5827
5831 5826 5821 5816 5811 5806 5800 5795 5790 5785 5781 5776 5771 5766 5761 5757 5753 5750 5749 5747 5747 5746 5747 5748 5749 5752 5754 5757 5760 5764 5768 5772 5777 5782 5786 5790 5795 5799 5804 5808 5812 5817 5820
5831 5827 5822 5817 5812 5807 5802 5796 5791 5786 5781 5776 5771 5767 5762 5757 5753 5749 5747 5745 5744 5743 5743 5744 5745 5746 5748 5751 5754 5757 5760 5764 5769 5773 5778 5782 5786 5791 5796 5800 5804 5808 5812
5832 5828 5823 5818 5813 5808 5803 5798 5793 5788 5783 5777 5772 5767 5762 5758 5753 5749 5746 5744 5742 5741 5741 5740 5741 5742 5743 5745 5748 5751 5754 5758 5761 5765 5770 5774 5778 5783 5787 5791 5795 5799 5804
5833 5829 5824 5820 5815 5810 5805 5800 5794 5789 5784 5779 5774 5768 5763 5758 5754 5750 5746 5743 5741 5739 5738 5738 5737 5738 5738 5740 5742 5745 5748 5752 5755 5759 5763 5767 5771 5775 5779 5783 5787 5791 5795
5835 5830 5826 5821 5816 5812 5806 5801 5796 5791 5786 5780 5775 5770 5765 5760 5755 5750 5747 5743 5740 5738 5737 5735 5735 5734 5734 5735 5737 5740 5743 5746 5749 5752 5756 5759 5763 5768 5772 5776 5780 5784 5787
5836 5832 5827 5823 5818 5813 5808 5803 5798 5793 5788 5782 5777 5772 5766 5761 5756 5751 5747 5744 5740 5738 5736 5734 5733 5732 5732 5732 5734 5736 5738 5740 5743 5747 5750 5753 5757 5761 5765 5769 5773 5776 5780
5838 5834 5829 5825 5820 5815 5811 5805 5800 5795 5790 5785 5779 5774 5768 5763 5758 5753 5749 5745 5741 5739 5736 5734 5732 5731 5730 5730 5731 5732 5734 5736 5739 5741 5745 5748 5751 5755 5759 5762 5766 5770 5773
5839 5835 5831 5827 5822 5818 5813 5808 5803 5797 5792 5787 5782 5776 5771 5765 5760 5756 5751 5747 5743 5740 5737 5734 5732 5730 5729 5729 5729 5730 5731 5733 5734 5737 5740 5743 5746 5749 5753 5756 5760 5763 5767
5840 5836 5832 5828 5824 5820 5815 5810 5805 5800 5795 5790 5784 5779 5774 5768 5763 5759 5754 5750 5746 5742 5739 5736 5733 5731 5729 5728 5727 5728 5729 5730 5731 5733 5736 5738 5741 5745 5748 5751 5754 5758 5761
5841 5837 5834 5830 5826 5821 5817 5812 5808 5803 5797 5792 5787 5782 5777 5772 5767 5762 5757 5753 5749 5745 5741 5738 5735 5732 5730 5728 5727 5727 5727 5728 5729 5731 5733 5736 5738 5741 5744 5747 5750 5753 5756
5842 5838 5835 5831 5827 5823 5819 5814 5810 5805 5800 5795 5790 5785 5780 5775 5770 5765 5760 5756 5752 5747 5743 5740 5736 5733 5731 5728 5727 5727 5726 5727 5727 5729 5731 5733 5736 5739 5741 5744 5747 5749 5752
5842 5839 5835 5832 5828 5824 5820 5816 5812 5807 5802 5797 5792 5788 5783 5778 5773 5768 5764 5759 5754 5750 5746 5742 5739 5735 5732 5730 5728 5727 5727 5727 5727 5729 5730 5733 5735 5737 5739 5742 5745 5747 5750
5842 5839 5835 5832 5828 5825 5821 5817 5813 5809 5804 5800 5795 5790 5786 5781 5776 5772 5767 5762 5758 5753 5749 5745 5742 5738 5735 5733 5731 5729 5729 5728 5729 5729 5731 5732 5734 5736 5738 5741 5743 5746 5749
5841 5838 5835 5832 5828 5825 5821 5818 5814 5810 5806 5802 5797 5793 5788 5784 5779 5775 5770 5765 5761 5757 5753 5749 5746 5742 5739 5737 5734 5733 5731 5731 5730 5731 5731 5732 5734 5736 5738 5740 5743 5745 5747
5840 5837 5834 5831 5828 5825 5821 5818 5814 5811 5807 5803 5799 5795 5791 5786 5782 5778 5774 5769 5765 5761 5757 5753 5750 5746 5743 5741 5738 5736 5735 5734 5733 5733 5733 5734 5735 5737 5739 5740 5743 5744 5746
5837 5835 5832 5829 5826 5823 5820 5817 5814 5810 5807 5803 5800 5796 5792 5788 5785 5781 5777 5772 5768 5764 5761 5757 5754 5750 5747 5745 5743 5741 5739 5737 5736 5736 5736 5737 5738 5739 5740 5741 5743 5745 5747
5834 5832 5829 5827 5824 5821 5818 5816 5813 5809 5806 5803 5800 5797 5793 5789 5786 5783 5779 5775 5772 5768 5764 5761 5758 5755 5752 5749 5747 5745 5743 5741 5740 5740 5739 5740 5740 5741 5742 5743 5744 5745 5747
5829 5827 5825 5823 5821 5818 5816 5813 5810 5808 5805 5802 5799 5796 5793 5790 5787 5784 5780 5777 5774 5771 5768 5764 5761 5758 5756 5753 5751 5749 5747 5746 5744 5744 5743 5743 5743 5743 5743 5744 5745 5746 5747